{"data":{"norad_id":69396,"intl_designator":"2026-124Q","name":"QIANFAN-179","alt_names":[],"object_type":"PAYLOAD","status":"ACTIVE","operator":null,"country":"PRC","launch_date":"2026-06-04","launch_site_code":"TAISC","launch_vehicle":null,"mission":null,"orbit_class":"UNKNOWN","rcs_meters":null,"size_class":null,"mass_kg":null,"dimensions":null,"purposes":[],"wikipedia_slug":null,"has_3d_model":false,"image_url":null,"decayed_at":null,"tle_current":{"epoch":"2026-09-20T03:34:11.663040Z","epoch_age_seconds":65101,"freshness":"FRESH","line1":"1 69396U 26124Q   26263.14874610  .00000091  00000+0  12297-3 0  9991","line2":"2 69396  89.0044 351.9703 0001827 101.5321 258.6036 13.51029992 14904","mean_motion":13.51029992,"eccentricity":0.0001827,"inclination_deg":89.0044,"raan_deg":351.9703,"arg_perigee_deg":101.5321,"mean_anomaly_deg":258.6036,"bstar":0.00012297,"rev_number":1490,"period_min":106.58534662641,"perigee_km":1067.1108812335,"apogee_km":1069.8318719343,"semimajor_km":7446.6083765839,"source":"CELESTRAK","updated_at":"2026-09-20T09:00:24.862811Z"}}}